Deer Park, WA
on Sunday, February 24, 2013

Sunday
Previous Day Next Day
Daily Summary
 ActualAverageRecord
Temperature
Mean Temperature °F / °C 32°F / 0°C  
Max Temperature 38°F / 3°C 42°F / 6°C 52°F / 11°C (2005)
Min Temperature 13°F / -11°C 22°F / -6°C 2°F / -16°C (2011)
Degree Days
Heating Degree Days 39 33  
Month to date heating degree days 841 839  
Since 1 July heating degree days 4949 5235  
Cooling Degree Days 0 0  
Month to date cooling degree days 0 0  
Year to date cooling degree days 0 0  
Moisture
Dew Point 20°F / -7°C   
Average Humidity 83    
Maximum Humidity 96    
Minimum Humidity 70    
Precipitation
Precipitation 0.00 in / 0.00 cm 0.05 in / 1.27 cm 1.04 in / 2.64 cm (1999)
Month to date precipitation 0.53 1.38  
Year to date precipitation 2.03 4.01  
Wind
Wind Speed 3 mph / 5 km/h   
Max Wind Speed 10 mph / 16 km/h   
Max Gust Speed 12 mph / 19 km/h   
Visibility 6 miles / 10 kilometers   
Events Fog   

Key: T is trace of precipitation, MM is missing value
Source: NWS Daily Summary
Time(PST)TemperatureDew PointHumidity Pressure Visibility Wind DirectionWind SpeedGust SpeedPrecipitationEvents Conditions
12:06 AM 15.8°F / -9.0°C 14.0°F / -10.0°C 93% 30.18 in / 1021.9 hPa 2.0 miles / 3.2 kilometers Calm Calm - N/A   Scattered Clouds
12:09 AM 15.8°F / -9.0°C 12.2°F / -11.0°C 86% 30.18 in / 1021.9 hPa 1.0 miles / 1.6 kilometers Calm Calm - N/A   Mist
12:16 AM 17.6°F / -8.0°C 15.8°F / -9.0°C 93% 30.19 in / 1022.2 hPa 0.8 miles / 1.2 kilometers Calm Calm - N/A   Mist
12:18 AM 17.6°F / -8.0°C 15.8°F / -9.0°C 93% 30.19 in / 1022.2 hPa 1.8 miles / 2.8 kilometers Calm Calm - N/A   Partly Cloudy
12:25 AM 17.6°F / -8.0°C 17.6°F / -8.0°C 100% 30.19 in / 1022.2 hPa 10.0 miles / 16.1 kilometers Calm Calm - N/A   Partly Cloudy
12:35 AM 15.8°F / -9.0°C 14.0°F / -10.0°C 93% 30.19 in / 1022.2 hPa 1.8 miles / 2.8 kilometers Calm Calm - N/A   Partly Cloudy
12:44 AM 15.8°F / -9.0°C 12.2°F / -11.0°C 86% 30.20 in / 1022.6 hPa 3.0 miles / 4.8 kilometers Calm Calm - N/A   Partly Cloudy
12:48 AM 15.8°F / -9.0°C 14.0°F / -10.0°C 93% 30.20 in / 1022.6 hPa 1.5 miles / 2.4 kilometers Calm Calm - N/A   Scattered Clouds
12:53 AM 17.1°F / -8.3°C 16.0°F / -8.9°C 96% 30.28 in / 1025.3 hPa 0.8 miles / 1.2 kilometers Calm Calm - N/A   Mist
1:53 AM 15.1°F / -9.4°C 14.0°F / -10.0°C 95% 30.30 in / 1025.8 hPa 0.2 miles / 0.4 kilometers Calm Calm - N/A Fog Light Freezing Fog
2:37 AM 17.6°F / -8.0°C 17.6°F / -8.0°C 100% 30.22 in / 1023.2 hPa 2.0 miles / 3.2 kilometers ESE 3.5 mph / 5.6 km/h - N/A   Mostly Cloudy
2:40 AM 15.8°F / -9.0°C 15.8°F / -9.0°C 100% 30.22 in / 1023.2 hPa 3.0 miles / 4.8 kilometers ESE 3.5 mph / 5.6 km/h - N/A   Scattered Clouds
2:53 AM 17.1°F / -8.3°C 14.0°F / -10.0°C 88% 30.29 in / 1025.7 hPa 10.0 miles / 16.1 kilometers ESE 3.5 mph / 5.6 km/h - N/A   Partly Cloudy
3:21 AM 17.6°F / -8.0°C 15.8°F / -9.0°C 93% 30.23 in / 1023.6 hPa 1.5 miles / 2.4 kilometers Calm Calm - N/A   Clear
3:28 AM 15.8°F / -9.0°C 14.0°F / -10.0°C 93% 30.22 in / 1023.2 hPa 0.8 miles / 1.2 kilometers Calm Calm - N/A   Mist
3:53 AM 14.0°F / -10.0°C 12.9°F / -10.6°C 95% 30.31 in / 1026.3 hPa 0.5 miles / 0.8 kilometers Calm Calm - N/A Fog Light Freezing Fog
4:53 AM 15.1°F / -9.4°C 12.9°F / -10.6°C 91% 30.32 in / 1026.5 hPa 0.2 miles / 0.4 kilometers Calm Calm - N/A Fog Light Freezing Fog
5:26 AM 15.8°F / -9.0°C 14.0°F / -10.0°C 93% 30.24 in / 1023.9 hPa 0.5 miles / 0.8 kilometers Calm Calm - N/A Fog Light Freezing Fog
5:50 AM 15.8°F / -9.0°C 12.2°F / -11.0°C 86% 30.25 in / 1024.3 hPa 1.5 miles / 2.4 kilometers NW 4.6 mph / 7.4 km/h - N/A   Overcast
5:53 AM 15.1°F / -9.4°C 12.9°F / -10.6°C 91% 30.34 in / 1027.4 hPa 2.5 miles / 4.0 kilometers NW 4.6 mph / 7.4 km/h - N/A   Overcast
6:00 AM 17.6°F / -8.0°C 14.0°F / -10.0°C 86% 30.25 in / 1024.3 hPa 10.0 miles / 16.1 kilometers Calm Calm - N/A   Overcast
6:53 AM 19.9°F / -6.7°C 17.1°F / -8.3°C 89% 30.35 in / 1027.7 hPa 10.0 miles / 16.1 kilometers Calm Calm - N/A   Overcast
7:53 AM 24.1°F / -4.4°C 21.9°F / -5.6°C 91% 30.36 in / 1028.0 hPa 10.0 miles / 16.1 kilometers Calm Calm - N/A   Overcast
8:53 AM 27.0°F / -2.8°C 25.0°F / -3.9°C 92% 30.36 in / 1028.1 hPa 10.0 miles / 16.1 kilometers SSE 6.9 mph / 11.1 km/h - N/A   Overcast
9:53 AM 28.0°F / -2.2°C 26.1°F / -3.3°C 92% 30.38 in / 1028.5 hPa 10.0 miles / 16.1 kilometers South 6.9 mph / 11.1 km/h - N/A   Overcast
10:53 AM 30.0°F / -1.1°C 28.0°F / -2.2°C 92% 30.38 in / 1028.8 hPa 10.0 miles / 16.1 kilometers SW 3.5 mph / 5.6 km/h - N/A   Overcast
11:04 AM 30.2°F / -1.0°C 26.6°F / -3.0°C 86% 30.29 in / 1025.6 hPa 10.0 miles / 16.1 kilometers SSW 4.6 mph / 7.4 km/h - N/A   Overcast
11:53 AM 32.0°F / 0.0°C 28.0°F / -2.2°C 85% 30.38 in / 1028.5 hPa 7.0 miles / 11.3 kilometers Calm Calm - N/A   Overcast
12:53 PM 34.0°F / 1.1°C 28.0°F / -2.2°C 79% 30.34 in / 1027.4 hPa 10.0 miles / 16.1 kilometers SSW 6.9 mph / 11.1 km/h - N/A   Overcast
1:53 PM 36.0°F / 2.2°C 28.9°F / -1.7°C 76% 30.32 in / 1026.7 hPa 10.0 miles / 16.1 kilometers Calm Calm - N/A   Overcast
2:53 PM 37.9°F / 3.3°C 28.0°F / -2.2°C 68% 30.30 in / 1025.8 hPa 10.0 miles / 16.1 kilometers Calm Calm - N/A   Overcast
3:53 PM 36.0°F / 2.2°C 26.1°F / -3.3°C 67% 30.30 in / 1026.0 hPa 10.0 miles / 16.1 kilometers South 6.9 mph / 11.1 km/h - N/A   Overcast
5:53 PM 35.1°F / 1.7°C 27.0°F / -2.8°C 72% 30.26 in / 1024.5 hPa 10.0 miles / 16.1 kilometers SE 3.5 mph / 5.6 km/h - N/A   Overcast
6:53 PM 35.1°F / 1.7°C 27.0°F / -2.8°C 72% 30.24 in / 1023.9 hPa 10.0 miles / 16.1 kilometers ESE 4.6 mph / 7.4 km/h - N/A   Overcast
7:53 PM 34.0°F / 1.1°C 28.0°F / -2.2°C 79% 30.22 in / 1023.2 hPa 10.0 miles / 16.1 kilometers SSE 5.8 mph / 9.3 km/h - N/A   Overcast
8:53 PM 34.0°F / 1.1°C 27.0°F / -2.8°C 75% 30.18 in / 1021.9 hPa 10.0 miles / 16.1 kilometers SSE 5.8 mph / 9.3 km/h - N/A   Overcast
9:53 PM 34.0°F / 1.1°C 27.0°F / -2.8°C 75% 30.17 in / 1021.4 hPa 10.0 miles / 16.1 kilometers SE 3.5 mph / 5.6 km/h - N/A   Overcast
10:53 PM 32.0°F / 0.0°C 28.0°F / -2.2°C 85% 30.14 in / 1020.4 hPa 10.0 miles / 16.1 kilometers Calm Calm - N/A   Overcast
11:53 PM 30.9°F / -0.6°C 28.0°F / -2.2°C 89% 30.10 in / 1019.3 hPa 10.0 miles / 16.1 kilometers Calm Calm - N/A   Overcast
Moon Phase
Feb. 24 Feb. 25 Mar. 04 Mar. 11 Mar. 19
Sunrise:06:39 AM (PST) Moon Rise:04:43 PM (PST)2/24
Sunset:05:27 PM (PST) Moon Set:05:40 AM (PST)2/24

Copyright © 2014 The Weather Underground, Inc.